Location: Unspecified
(33.2407°S, 0.0000°E)
Time: 18:49:31
(UTC+00:00)

Envisat - Pass Details

Date: 22 May 2019
Orbit: 764 x 766 km, 98.1° (Epoch: 18 June)

Event Time Altitude Azimuth Distance (km) Brightness Sun altitude
Exits shadow 20:40:42 10° 280° (W) 2,295 6.0 -44.9°
Drops below altitude 10° 20:40:49 10° 281° (W) 2,322 6.0 -44.9°
Sets 20:44:00 0° 302° (WNW) 3,232 6.8 -45.6°
